Nashville, TN

11:27 PM CST on December 12, 2019 (GMT -0600)
Nashville International

Weather History for KBNA - October, 2019

Change the Weather History Date:

Tuesday, October 15, 2019

  Actual Average Record
Temperature  
Mean Temperature 66 °F 60 °F  
Max Temperature 79 °F 72 °F 89 °F (1947)
Min Temperature 53 °F 49 °F 32 °F (1978)
Degree Days  
Heating Degree Days 0    
Month to date heating degree days  
Since 1 July heating degree days  
Cooling Degree Days 0    
Month to date cooling degree days  
Year to date cooling degree days  
Growing Degree Days 16 (Base 50)    
Moisture  
Dew Point 54 °F    
Average Humidity 67    
Maximum Humidity 83    
Minimum Humidity 48    
Precipitation  
Precipitation 0.00 in 0.09 in 1.27 in (1925)
Month to date precipitation 1.45  
Year to date precipitation 37.11  
Sea Level Pressure  
Sea Level Pressure 29.98 in    
Wind  
Wind Speed 4 mph ()    
Max Wind Speed 15 mph    
Max Gust Speed -    
Visibility 9.9 miles    
Events Rain    
T = Trace of Precipitation, MM = Missing Value Source: Averaged Metar Reports

Daily Weather History Graph

Daily Weather History Graph

Search for Another Location

Airport or City:

Astronomy

Oct. 15, 2019 Rise Set
Actual Time 6:53 AM CDT 6:11 PM CDT
Civil Twilight 6:27 AM CDT 6:36 PM CDT
Nautical Twilight 5:57 AM CDT 7:06 PM CDT
Astronomical Twilight 5:28 AM CDT 7:36 PM CDT
Moon 7:33 PM CDT (10/15) 8:21 AM CDT (10/15)
Length of Visible Light 12h 09m
Length of Day
11h 17m
Full, 97% of the Moon is Illuminated
Oct 15
Full
Oct 21
Last Quarter
Oct 27
New
Nov 4
First Quarter
Nov 12
Full

Hourly Weather History & Observations

Time (CDT) Temp. Dew Point Humidity Pressure Visibility Wind Dir Wind Speed Gust Speed Precip Events Conditions
12:53 AM 55.0 °F 48.0 °F 77% 30.08 in 10.0 mi Calm Calm - N/A   Clear
1:53 AM 53.1 °F 46.9 °F 80% 30.08 in 10.0 mi SSW 3.5 mph - N/A   Clear
2:53 AM 53.1 °F 48.0 °F 83% 30.07 in 10.0 mi Calm Calm - N/A   Mostly Cloudy
3:53 AM 55.9 °F 48.9 °F 77% 30.07 in 10.0 mi Calm Calm - N/A   Mostly Cloudy
4:53 AM 55.0 °F 50.0 °F 83% 30.06 in 10.0 mi South 5.8 mph - N/A   Overcast
5:53 AM 57.0 °F 50.0 °F 77% 30.07 in 10.0 mi Calm Calm - N/A   Overcast
6:32 AM 57.9 °F 48.9 °F 72% 30.08 in 7.0 mi Calm Calm - 0.00 in Rain Light Rain
6:53 AM 57.9 °F 50.0 °F 75% 30.06 in 10.0 mi ENE 4.6 mph - 0.00 in   Mostly Cloudy
7:05 AM 57.0 °F 50.0 °F 77% 30.06 in 10.0 mi SE 5.8 mph - N/A   Mostly Cloudy
7:53 AM 57.9 °F 50.0 °F 75% 30.05 in 10.0 mi SSW 3.5 mph - N/A   Scattered Clouds
8:53 AM 64.9 °F 51.1 °F 61% 30.05 in 10.0 mi South 4.6 mph - N/A   Mostly Cloudy
9:53 AM 68.0 °F 51.1 °F 55% 30.05 in 10.0 mi SSE 4.6 mph - N/A   Mostly Cloudy
10:53 AM 72.0 °F 53.1 °F 51% 30.03 in 10.0 mi SSW 5.8 mph - N/A   Mostly Cloudy
11:53 AM 73.9 °F 55.0 °F 52% 30.02 in 10.0 mi South 6.9 mph - N/A   Mostly Cloudy
12:53 PM 77.0 °F 55.9 °F 48% 29.99 in 10.0 mi Variable 6.9 mph - N/A   Mostly Cloudy
1:53 PM 77.0 °F 55.9 °F 48% 29.96 in 10.0 mi South 11.5 mph - N/A   Mostly Cloudy
3:53 PM 77.0 °F 57.9 °F 52% 29.91 in 10.0 mi SSW 8.1 mph - N/A   Mostly Cloudy
4:53 PM 78.1 °F 57.9 °F 50% 29.89 in 10.0 mi South 15.0 mph - N/A   Mostly Cloudy
5:53 PM 75.0 °F 59.0 °F 57% 29.88 in 10.0 mi SSW 6.9 mph - N/A   Mostly Cloudy
6:53 PM 73.0 °F 60.1 °F 64% 29.88 in 10.0 mi SSW 6.9 mph - N/A   Mostly Cloudy
7:53 PM 70.0 °F 60.1 °F 71% 29.89 in 10.0 mi South 9.2 mph - N/A   Mostly Cloudy
8:53 PM 71.1 °F 60.1 °F 68% 29.88 in 10.0 mi South 6.9 mph - N/A   Mostly Cloudy
9:43 PM 70.0 °F 60.1 °F 71% 29.88 in 10.0 mi SSW 8.1 mph - 0.00 in   Overcast
9:53 PM 70.0 °F 60.1 °F 71% 29.87 in 10.0 mi South 8.1 mph - 0.00 in   Overcast
10:53 PM 69.1 °F 60.1 °F 73% 29.85 in 10.0 mi SSW 11.5 mph - 0.00 in   Overcast
11:53 PM 69.1 °F 60.1 °F 73% 29.84 in 10.0 mi SSW 8.1 mph - N/A   Scattered Clouds